Location: Bonaustraße
(48.4603°N, 11.9280°E)
Time: 06:41:31
(UTC+02:00)

STRAND 1 - Pass Details

Date: 29 July 2021
Orbit: 768 x 781 km, 98.4° (Epoch: 26 September)

Event Time Altitude Azimuth Distance (km) Brightness Sun altitude
Rises 21:33:33 0° 7° (N) 3,258 ? -6.4°
Reaches altitude 10° 21:36:03 10° 359° (N) 2,325 ? -6.7°
Maximum altitude 21:40:37 34° 295° (WNW) 1,251 ? -7.3°
Drops below altitude 10° 21:45:10 10° 232° (SW) 2,306 ? -7.9°
Sets 21:47:37 0° 223° (SW) 3,228 ? -8.2°
